{"data":{"norad_id":69154,"intl_designator":"2026-111G","name":"STARLINK-37235","alt_names":[],"object_type":"PAYLOAD","status":"ACTIVE","operator":null,"country":"US","launch_date":"2026-05-21","launch_site_code":"AFETR","launch_vehicle":null,"mission":null,"orbit_class":"UNKNOWN","rcs_meters":null,"size_class":null,"mass_kg":null,"dimensions":null,"purposes":["comms"],"wikipedia_slug":null,"has_3d_model":false,"image_url":null,"decayed_at":null,"tle_current":{"epoch":"2026-09-20T03:47:18.233088Z","epoch_age_seconds":52709,"freshness":"FRESH","line1":"1 69154U 26111G   26263.15784992  .00014733  00000+0  44625-3 0  9991","line2":"2 69154  53.1583  67.5348 0001237  75.9048 284.2092 15.34405213 18847","mean_motion":15.34405213,"eccentricity":0.0001237,"inclination_deg":53.1583,"raan_deg":67.5348,"arg_perigee_deg":75.9048,"mean_anomaly_deg":284.2092,"bstar":0.00044625,"rev_number":1884,"period_min":93.847439242244,"perigee_km":461.84153609529,"apogee_km":463.53395613748,"semimajor_km":6840.8247461164,"source":"CELESTRAK","updated_at":"2026-09-20T09:00:44.090586Z"}}}